Weather History for Worcester, MA

Change the Weather History Date:

Monday, February 18, 2013

  Actual Average Record
Temperature  
Mean Temperature 18 °F 28 °F  
Max Temperature 26 °F 35 °F 63 °F (1981)
Min Temperature 10 °F 20 °F -12 °F (1958)
Degree Days  
Heating Degree Days 47 37  
Month to date heating degree days 711 701  
Since 1 July heating degree days 4102 4474  
Cooling Degree Days 0 0  
Month to date cooling degree days 0 0  
Year to date cooling degree days 0 0  
Moisture  
Dew Point -3 °F    
Average Humidity 42    
Maximum Humidity 58    
Minimum Humidity 25    
Precipitation  
Precipitation 0.00 in 0.11 in 1.10 in (1998)
Month to date precipitation 2.83 2.04  
Year to date precipitation 4.78 5.53  
Sea Level Pressure  
Sea Level Pressure 29.98 in    
Wind  
Wind Speed 21 mph (West)    
Max Wind Speed 36 mph    
Max Gust Speed 46 mph    
Visibility 10 miles    
Events      
T = Trace of Precipitation, MM = Missing Value Source: NWS Daily Summary

Daily Weather History Graph

Daily Weather History Graph

Search for Another Location

Airport:

Trip Planner

Search our weather history database for the weather conditions in past years. The results will help you decide how hot, cold, wet, or windy it might be!

Date:

Astronomy

Feb. 18, 2013 Rise Set
Actual Time 6:39 AM EST 5:24 PM EST
Civil Twilight 6:10 AM EST 5:52 PM EST
Nautical Twilight 5:38 AM EST 6:25 PM EST
Astronomical Twilight 5:05 AM EST 6:57 PM EST
Moon 11:04 AM EST (2/18) 1:19 AM EST (2/18)
Length of Visible Light 11h 42m
Length of Day
10h 44m
First Quarter, 58% of the Moon is Illuminated
Feb 18
First Quarter
Feb 25
Full
Mar 4
Last Quarter
Mar 11
New
Mar 19
First Quarter

Hourly Weather History & Observations

Time (EST) Temp. Windchill Dew Point Humidity Pressure Visibility Wind Dir Wind Speed Gust Speed Precip Events Conditions
12:54 AM 10.9 °F -9.6 °F -2.9 °F 54% 29.72 in 10.0 mi WNW 25.3 mph 40.3 mph N/A   Partly Cloudy
1:54 AM 10.9 °F -10.3 °F -2.9 °F 54% 29.74 in 10.0 mi WNW 27.6 mph 39.1 mph N/A   Scattered Clouds
2:54 AM 10.9 °F -10.3 °F -2.9 °F 54% 29.75 in 10.0 mi WNW 27.6 mph 36.8 mph N/A   Mostly Cloudy
3:54 AM 10.9 °F -11.3 °F -2.9 °F 54% 29.78 in 10.0 mi WNW 31.1 mph 41.4 mph N/A   Clear
4:54 AM 10.9 °F -11.3 °F -2.9 °F 54% 29.81 in 10.0 mi WNW 31.1 mph 43.7 mph N/A   Clear
5:54 AM 10.0 °F -11.5 °F -2.9 °F 56% 29.85 in 10.0 mi West 27.6 mph 40.3 mph N/A   Clear
6:54 AM 10.0 °F -9.5 °F -2.9 °F 56% 29.89 in 10.0 mi West 21.9 mph 34.5 mph N/A   Clear
7:54 AM 10.9 °F -8.8 °F -2.9 °F 54% 29.93 in 10.0 mi WNW 23.0 mph 39.1 mph N/A   Clear
8:54 AM 12.9 °F -6.5 °F -2.0 °F 51% 29.97 in 10.0 mi West 24.2 mph 38.0 mph N/A   Clear
9:54 AM 17.1 °F -0.6 °F -2.0 °F 43% 29.99 in 10.0 mi West 23.0 mph 36.8 mph N/A   Clear
10:54 AM 19.9 °F 3.9 °F -2.0 °F 38% 30.01 in 10.0 mi WNW 20.7 mph 32.2 mph N/A   Clear
11:54 AM 21.9 °F 5.8 °F -2.9 °F 34% 30.01 in 10.0 mi WNW 23.0 mph 34.5 mph N/A   Clear
12:54 PM 24.1 °F 6.6 °F -4.0 °F 29% 30.01 in 10.0 mi WNW 31.1 mph 39.1 mph N/A   Clear
1:54 PM 25.0 °F 11.7 °F -4.0 °F 28% 30.03 in 10.0 mi West 17.3 mph 26.5 mph N/A   Clear
2:54 PM 25.0 °F 10.6 °F -4.0 °F 28% 30.04 in 10.0 mi West 20.7 mph 31.1 mph N/A   Clear
3:54 PM 26.1 °F 12.0 °F -6.0 °F 25% 30.05 in 10.0 mi West 20.7 mph 29.9 mph N/A   Clear
4:54 PM 25.0 °F 12.2 °F -5.1 °F 27% 30.07 in 10.0 mi West 16.1 mph 24.2 mph N/A   Clear
5:54 PM 23.0 °F 10.1 °F -2.2 °F 33% 30.04 in 10.0 mi WSW 15.0 mph - N/A   Clear
6:54 PM 21.9 °F 9.2 °F -2.0 °F 35% 30.12 in 10.0 mi West 13.8 mph - N/A   Clear
7:54 PM 21.0 °F 8.1 °F -2.0 °F 36% 30.13 in 10.0 mi West 13.8 mph - N/A   Clear
8:54 PM 21.0 °F 8.6 °F -0.9 °F 38% 30.14 in 10.0 mi West 12.7 mph - N/A   Clear
9:54 PM 19.9 °F 7.3 °F 1.0 °F 44% 30.15 in 10.0 mi WSW 12.7 mph - N/A   Clear
10:54 PM 19.9 °F 6.2 °F -0.0 °F 42% 30.15 in 10.0 mi WSW 15.0 mph - N/A   Clear
11:54 PM 19.9 °F 6.2 °F -0.0 °F 42% 30.15 in 10.0 mi West 15.0 mph - N/A   Clear